F/v_l'omerta — FHXG — position and weather

sailwx.info

Track history (hours):
 
Tides and Currents Weather Stations Pressure Air Temp Water Temp Dewpoint Dewpoint Depression Visibility Wind Speed Wind Dir Waves Ship Positions

F/v_l'omerta

Last reported at 2014-Oct-30 10:13 UTC. Time now 2014-Oct-30 14:33 UTC.
Position N 46°43' W 002°41'.

Length 18 m.

Type: Fishing. MMSI: 227903000.

Date/timePositionNaut miles runAvg speedWind from/ knotsBaromVisibWave heightAir tempDewpointWater temp
2014-Oct-30 10:13N 46°43' W 002°41'3 0.9
2014-Oct-30 06:30N 46°42' W 002°46'3 1.2
2014-Oct-30 04:09N 46°41' W 002°42'2 3.7
2014-Oct-30 03:32N 46°39' W 002°41'4 3.2
2014-Oct-30 02:11N 46°35' W 002°38'3 3.7
2014-Oct-30 01:28N 46°32' W 002°36'3 3.5
2014-Oct-30 00:33N 46°31' W 002°31'3 3.5
2014-Oct-29 23:34N 46°29' W 002°28'4 3.5
2014-Oct-29 22:32N 46°27' W 002°23'10 9.9
2014-Oct-29 21:33N 46°28' W 002°09'10 9.6
2014-Oct-29 20:34N 46°28' W 001°55'6 5.8
2014-Oct-29 19:34N 46°30' W 001°47'0 0.0
2014-Oct-29 18:33N 46°30' W 001°47'0 0.2
2014-Oct-29 17:33N 46°30' W 001°47'5 5.5
2014-Oct-29 16:33N 46°30' W 001°55'10 9.8
2014-Oct-29 15:33N 46°30' W 002°10'7 5.1
2014-Oct-29 14:16N 46°32' W 002°19'3 3.5
2014-Oct-29 13:27N 46°33' W 002°23'4 3.6
2014-Oct-29 12:18N 46°33' W 002°29'5 2.7
2014-Oct-29 10:21N 46°37' W 002°34'3 3.7
2014-Oct-29 09:33N 46°40' W 002°36'5 3.7
2014-Oct-29 08:17N 46°43' W 002°41'3 2.9
2014-Oct-29 07:23N 46°43' W 002°45'1 0.6
2014-Oct-29 06:34N 46°43' W 002°45'3 2.9
2014-Oct-29 05:33N 46°44' W 002°41'3 2.6
2014-Oct-29 04:34N 46°42' W 002°44'2 1.8
2014-Oct-29 03:31N 46°44' W 002°44'2 2.1
2014-Oct-29 02:30N 46°43' W 002°41'3 3.0
2014-Oct-29 01:31N 46°42' W 002°45'3 2.6
2014-Oct-29 00:33N 46°44' W 002°43'3 3.0
2014-Oct-28 23:33N 46°44' W 002°39'3 3.0
2014-Oct-28 22:31N 46°46' W 002°36'14 1.2
2014-Oct-28 10:03N 46°60' W 002°40'2 2.9
2014-Oct-28 09:15N 46°57' W 002°40'15 3.2
2014-Oct-28 04:30N 46°43' W 002°45'1 0.5
2014-Oct-28 02:11N 46°42' W 002°45'2 2.2
2014-Oct-28 01:24N 46°43' W 002°44'2 2.7
2014-Oct-28 00:30N 46°43' W 002°41'4 3.7
2014-Oct-27 23:29N 46°40' W 002°37'6 3.4
2014-Oct-27 21:33N 46°35' W 002°32'4 3.5
2014-Oct-27 20:32N 46°33' W 002°28'4 3.7
2014-Oct-27 19:32N 46°33' W 002°22'4 4.1
2014-Oct-27 18:29N 46°33' W 002°16'3 3.5
2014-Oct-27 17:33N 46°30' W 002°14'4 3.5
2014-Oct-27 16:30N 46°32' W 002°19'3 3.3
2014-Oct-27 15:33N 46°35' W 002°17'3 3.0
2014-Oct-27 14:33N 46°35' W 002°13'4 3.9
2014-Oct-27 13:34N 46°32' W 002°09'4 3.6
2014-Oct-27 12:34N 46°30' W 002°05'4 3.7
2014-Oct-27 11:34N 46°28' W 002°01'2 2.3
2014-Oct-27 10:33N 46°27' W 001°58'4 3.4
2014-Oct-27 09:31N 46°26' W 002°03'4 3.7
2014-Oct-27 08:32N 46°29' W 002°05'3 3.4
2014-Oct-27 07:33N 46°31' W 002°09'2 2.3
2014-Oct-27 06:33N 46°32' W 002°06'3 3.4
2014-Oct-27 05:33N 46°29' W 002°03'4 3.0
2014-Oct-27 04:19N 46°25' W 002°03'2 2.0
2014-Oct-27 03:33N 46°24' W 002°03'4 3.5
2014-Oct-27 02:27N 46°21' W 001°60'3 3.0
2014-Oct-27 01:33N 46°20' W 001°56'3 3.1
2014-Oct-27 00:34N 46°22' W 001°53'1 0.9
2014-Oct-26 23:34N 46°22' W 001°51'4 4.2
2014-Oct-26 22:33N 46°18' W 001°49'3 3.2
2014-Oct-26 21:33N 46°20' W 001°52'4 4.0
2014-Oct-26 20:34N 46°24' W 001°54'3 3.1
2014-Oct-26 19:33N 46°27' W 001°56'5 5.5
2014-Oct-26 18:33N 46°28' W 001°48'2 1.8
2014-Oct-26 17:33N 46°30' W 001°47'2 2.5
2014-Oct-26 16:34N 46°28' W 001°49'9 9.5
2014-Oct-26 15:34N 46°22' W 002°00'11 3.1
2014-Oct-26 12:12N 46°13' W 001°53'3 4.1
2014-Oct-26 11:33N 46°11' W 001°52'1 1.0
2014-Oct-26 10:33N 46°10' W 001°53'3 3.2
2014-Oct-26 09:28N 46°13' W 001°54'2 1.9
2014-Oct-26 08:14N 46°11' W 001°56'2 3.2
2014-Oct-26 07:29N 46°10' W 001°53'6 0.7
2014-Oct-26 00:07N 46°12' W 001°45'2 3.4
2014-Oct-25 23:33N 46°14' W 001°47'3 3.5
2014-Oct-25 22:33N 46°17' W 001°49'3 2.8
2014-Oct-25 21:34N 46°19' W 001°51'4 3.6
2014-Oct-25 20:34N 46°23' W 001°53'3 3.5
2014-Oct-25 19:34N 46°26' W 001°55'3 2.8
2014-Oct-25 18:33N 46°26' W 001°59'3 2.9
2014-Oct-25 17:34N 46°26' W 002°03'4 3.8
2014-Oct-25 16:33N 46°28' W 001°58'2 2.2
2014-Oct-25 15:33N 46°26' W 002°00'2 2.4
2014-Oct-25 14:33N 46°27' W 002°04'3 3.2
2014-Oct-25 13:33N 46°28' W 001°59'2 1.5
2014-Oct-25 12:33N 46°26' W 001°60'3 3.2
2014-Oct-25 11:33N 46°26' W 002°05'4 3.9
2014-Oct-25 10:33N 46°28' W 001°59'1 1.3
2014-Oct-25 09:34N 46°26' W 001°59'3 3.5
2014-Oct-25 08:33N 46°26' W 002°04'4 4.0
2014-Oct-25 07:34N 46°28' W 001°59'2 1.7
2014-Oct-25 06:34N 46°26' W 002°00'3 2.7
2014-Oct-25 05:33N 46°25' W 002°04'3 3.2
2014-Oct-25 04:33N 46°28' W 002°01'2 2.4
2014-Oct-25 03:33N 46°27' W 001°57'4 3.8
2014-Oct-25 02:34N 46°25' W 002°02'2 2.4
2014-Oct-25 01:33N 46°23' W 002°02'3 3.1
2014-Oct-25 00:32N 46°20' W 001°59'3 3.0
2014-Oct-24 23:33N 46°21' W 001°55'3 3.4
2014-Oct-24 22:33N 46°21' W 001°50'2 1.9
2014-Oct-24 21:34N 46°21' W 001°48'3 3.4
2014-Oct-24 20:34N 46°24' W 001°51'3 3.4
2014-Oct-24 19:33N 46°26' W 001°55'3 3.3
2014-Oct-24 18:34N 46°27' W 001°59'1 1.2
2014-Oct-24 17:33N 46°27' W 002°01'3 2.6
2014-Oct-24 16:34N 46°27' W 001°57'4 3.8
2014-Oct-24 15:31N 46°26' W 002°03'3 3.1
2014-Oct-24 14:33N 46°27' W 001°59'6 5.5
2014-Oct-24 13:33N 46°28' W 001°51'3 2.9
2014-Oct-24 12:34N 46°29' W 001°47'8 7.6
2014-Oct-24 11:33N 46°27' W 001°58'2 2.3
2014-Oct-24 10:33N 46°27' W 002°01'2 2.0
2014-Oct-24 09:33N 46°27' W 001°58'3 3.3
2014-Oct-24 08:34N 46°26' W 002°03'3 2.7
2014-Oct-24 07:33N 46°28' W 001°60'3 2.6
2014-Oct-24 06:34N 46°26' W 001°56'4 4.2
2014-Oct-24 05:33N 46°24' W 001°52'8 8.3
2014-Oct-24 04:33N 46°20' W 001°41'10 2.0
2014-Oct-23 23:20N 46°10' W 001°35'7 8.9
2014-Oct-23 22:33N 46°14' W 001°44'3 3.2
2014-Oct-23 21:34N 46°17' W 001°46'3 3.5
2014-Oct-23 20:34N 46°19' W 001°50'3 3.4
2014-Oct-23 19:33N 46°20' W 001°54'3 3.4
2014-Oct-23 18:33N 46°20' W 001°59'3 3.4
2014-Oct-23 17:34N 46°23' W 002°02'4 3.6
2014-Oct-23 16:34N 46°27' W 002°00'1 0.7
2014-Oct-23 15:34N 46°26' W 001°60'3 3.4
2014-Oct-23 14:34N 46°24' W 002°03'3 3.1
2014-Oct-23 13:33N 46°21' W 002°00'5 1.6
2014-Oct-23 10:31N 46°16' W 002°01'7 2.4
2014-Oct-23 07:33N 46°13' W 001°51'4 4.2
2014-Oct-23 06:33N 46°18' W 001°50'2 2.0
2014-Oct-23 05:34N 46°18' W 001°47'3 2.9
2014-Oct-23 04:33N 46°15' W 001°47'3 3.4
2014-Oct-23 03:33N 46°17' W 001°50'4 3.7
2014-Oct-23 02:33N 46°21' W 001°52'2 2.2
2014-Oct-23 01:33N 46°21' W 001°49'4 3.6
2014-Oct-23 00:33N 46°18' W 001°47'3 3.3
2014-Oct-22 23:32N 46°15' W 001°46'3 3.4
2014-Oct-22 22:34N 46°17' W 001°49'1 0.9
2014-Oct-22 21:34N 46°18' W 001°50'4 3.7
2014-Oct-22 20:33N 46°14' W 001°47'7 3.6
2014-Oct-22 18:32N 46°08' W 001°42'5 0.7
2014-Oct-22 11:34N 46°12' W 001°46'4 4.2
2014-Oct-22 10:33N 46°16' W 001°49'2 2.3
2014-Oct-22 09:33N 46°18' W 001°47'4 1.9
2014-Oct-22 07:33N 46°14' W 001°47'5 4.5
2014-Oct-22 06:33N 46°18' W 001°50'5 5.0
2014-Oct-22 05:34N 46°23' W 001°51'7 7.1
2014-Oct-22 04:33N 46°30' W 001°48'0 0.0
2014-Oct-22 03:33N 46°30' W 001°48'0 0.0
2014-Oct-22 02:33N 46°30' W 001°48'0 0.0
2014-Oct-22 01:33N 46°30' W 001°48'0 0.0
2014-Oct-22 00:33N 46°30' W 001°48'0 0.0
2014-Oct-21 23:34N 46°30' W 001°48'0 0.0
2014-Oct-21 22:33N 46°30' W 001°48'0 0.0
2014-Oct-21 21:33N 46°30' W 001°48'0 0.0
2014-Oct-21 20:33N 46°30' W 001°48'0 0.0
2014-Oct-21 19:33N 46°30' W 001°48'0 0.0
2014-Oct-21 18:33N 46°30' W 001°48'0 0.0
2014-Oct-21 17:33N 46°30' W 001°48'0 0.0
2014-Oct-21 16:33N 46°30' W 001°48'0 0.0
2014-Oct-21 15:33N 46°30' W 001°48'0 0.1
2014-Oct-21 14:34N 46°30' W 001°47'0 0.1
2014-Oct-21 13:34N 46°30' W 001°47'0 0.0
2014-Oct-21 12:33N 46°30' W 001°47'0 0.0
2014-Oct-21 11:33N 46°30' W 001°47'0 0.0
2014-Oct-21 10:34N 46°30' W 001°47'0 0.0
2014-Oct-21 09:33N 46°30' W 001°47'0 0.0
2014-Oct-21 08:34N 46°30' W 001°47'0 0.0
2014-Oct-21 07:33N 46°30' W 001°47'0 0.0
2014-Oct-21 06:34N 46°30' W 001°47'0 0.0
2014-Oct-21 05:33N 46°30' W 001°47'0 0.0
2014-Oct-21 04:33N 46°30' W 001°47'0 0.0
2014-Oct-21 03:33N 46°30' W 001°47'0 0.0
2014-Oct-21 02:34N 46°30' W 001°47'0 0.0
2014-Oct-21 01:34N 46°30' W 001°47'0 0.0
2014-Oct-21 00:33N 46°30' W 001°47'0 0.0
2014-Oct-20 23:34N 46°30' W 001°47'0 0.0
2014-Oct-20 22:34N 46°30' W 001°47'0 0.0
2014-Oct-20 21:34N 46°30' W 001°47'0 0.0
2014-Oct-20 20:34N 46°30' W 001°47'0 0.0
2014-Oct-20 19:33N 46°30' W 001°47'0 0.0
2014-Oct-20 18:33N 46°30' W 001°47'0 0.0
2014-Oct-20 17:34N 46°30' W 001°47'0 0.0
2014-Oct-20 16:33N 46°30' W 001°47'0 0.0
2014-Oct-20 15:33N 46°30' W 001°47'0 0.0
2014-Oct-20 14:34N 46°30' W 001°47'0 0.0
2014-Oct-20 13:33N 46°30' W 001°47'0 0.0
2014-Oct-20 12:33N 46°30' W 001°47'0 0.0
2014-Oct-20 11:34N 46°30' W 001°47'0 0.0
2014-Oct-20 10:33N 46°30' W 001°47'  
Track history (hours):
 
Tides and Currents Weather Stations Pressure Air Temp Water Temp Dewpoint Dewpoint Depression Visibility Wind Speed Wind Dir Waves Ship Positions

F/v_l'omerta

Last reported at 2014-Oct-30 10:13 UTC. Time now 2014-Oct-30 14:33 UTC.
Position N 46°43' W 002°41'.

Length 18 m.

Type: Fishing. MMSI: 227903000.

Date/timePositionNaut miles runAvg speedWind from/ knotsBaromVisibWave heightAir tempDewpointWater temp
2014-Oct-30 10:13N 46°43' W 002°41'3 0.9
2014-Oct-30 06:30N 46°42' W 002°46'3 1.2
2014-Oct-30 04:09N 46°41' W 002°42'2 3.7
2014-Oct-30 03:32N 46°39' W 002°41'4 3.2
2014-Oct-30 02:11N 46°35' W 002°38'3 3.7
2014-Oct-30 01:28N 46°32' W 002°36'3 3.5
2014-Oct-30 00:33N 46°31' W 002°31'3 3.5
2014-Oct-29 23:34N 46°29' W 002°28'4 3.5
2014-Oct-29 22:32N 46°27' W 002°23'10 9.9
2014-Oct-29 21:33N 46°28' W 002°09'10 9.6
2014-Oct-29 20:34N 46°28' W 001°55'6 5.8
2014-Oct-29 19:34N 46°30' W 001°47'0 0.0
2014-Oct-29 18:33N 46°30' W 001°47'0 0.2
2014-Oct-29 17:33N 46°30' W 001°47'5 5.5
2014-Oct-29 16:33N 46°30' W 001°55'10 9.8
2014-Oct-29 15:33N 46°30' W 002°10'7 5.1
2014-Oct-29 14:16N 46°32' W 002°19'3 3.5
2014-Oct-29 13:27N 46°33' W 002°23'4 3.6
2014-Oct-29 12:18N 46°33' W 002°29'5 2.7
2014-Oct-29 10:21N 46°37' W 002°34'3 3.7
2014-Oct-29 09:33N 46°40' W 002°36'5 3.7
2014-Oct-29 08:17N 46°43' W 002°41'3 2.9
2014-Oct-29 07:23N 46°43' W 002°45'1 0.6
2014-Oct-29 06:34N 46°43' W 002°45'3 2.9
2014-Oct-29 05:33N 46°44' W 002°41'3 2.6
2014-Oct-29 04:34N 46°42' W 002°44'2 1.8
2014-Oct-29 03:31N 46°44' W 002°44'2 2.1
2014-Oct-29 02:30N 46°43' W 002°41'3 3.0
2014-Oct-29 01:31N 46°42' W 002°45'3 2.6
2014-Oct-29 00:33N 46°44' W 002°43'3 3.0
2014-Oct-28 23:33N 46°44' W 002°39'3 3.0
2014-Oct-28 22:31N 46°46' W 002°36'14 1.2
2014-Oct-28 10:03N 46°60' W 002°40'2 2.9
2014-Oct-28 09:15N 46°57' W 002°40'15 3.2
2014-Oct-28 04:30N 46°43' W 002°45'1 0.5
2014-Oct-28 02:11N 46°42' W 002°45'2 2.2
2014-Oct-28 01:24N 46°43' W 002°44'2 2.7
2014-Oct-28 00:30N 46°43' W 002°41'4 3.7
2014-Oct-27 23:29N 46°40' W 002°37'6 3.4
2014-Oct-27 21:33N 46°35' W 002°32'4 3.5
2014-Oct-27 20:32N 46°33' W 002°28'4 3.7
2014-Oct-27 19:32N 46°33' W 002°22'4 4.1
2014-Oct-27 18:29N 46°33' W 002°16'3 3.5
2014-Oct-27 17:33N 46°30' W 002°14'4 3.5
2014-Oct-27 16:30N 46°32' W 002°19'3 3.3
2014-Oct-27 15:33N 46°35' W 002°17'3 3.0
2014-Oct-27 14:33N 46°35' W 002°13'4 3.9
2014-Oct-27 13:34N 46°32' W 002°09'4 3.6
2014-Oct-27 12:34N 46°30' W 002°05'4 3.7
2014-Oct-27 11:34N 46°28' W 002°01'2 2.3
2014-Oct-27 10:33N 46°27' W 001°58'4 3.4
2014-Oct-27 09:31N 46°26' W 002°03'4 3.7
2014-Oct-27 08:32N 46°29' W 002°05'3 3.4
2014-Oct-27 07:33N 46°31' W 002°09'2 2.3
2014-Oct-27 06:33N 46°32' W 002°06'3 3.4
2014-Oct-27 05:33N 46°29' W 002°03'4 3.0
2014-Oct-27 04:19N 46°25' W 002°03'2 2.0
2014-Oct-27 03:33N 46°24' W 002°03'4 3.5
2014-Oct-27 02:27N 46°21' W 001°60'3 3.0
2014-Oct-27 01:33N 46°20' W 001°56'3 3.1
2014-Oct-27 00:34N 46°22' W 001°53'1 0.9
2014-Oct-26 23:34N 46°22' W 001°51'4 4.2
2014-Oct-26 22:33N 46°18' W 001°49'3 3.2
2014-Oct-26 21:33N 46°20' W 001°52'4 4.0
2014-Oct-26 20:34N 46°24' W 001°54'3 3.1
2014-Oct-26 19:33N 46°27' W 001°56'5 5.5
2014-Oct-26 18:33N 46°28' W 001°48'2 1.8
2014-Oct-26 17:33N 46°30' W 001°47'2 2.5
2014-Oct-26 16:34N 46°28' W 001°49'9 9.5
2014-Oct-26 15:34N 46°22' W 002°00'11 3.1
2014-Oct-26 12:12N 46°13' W 001°53'3 4.1
2014-Oct-26 11:33N 46°11' W 001°52'1 1.0
2014-Oct-26 10:33N 46°10' W 001°53'3 3.2
2014-Oct-26 09:28N 46°13' W 001°54'2 1.9
2014-Oct-26 08:14N 46°11' W 001°56'2 3.2
2014-Oct-26 07:29N 46°10' W 001°53'6 0.7
2014-Oct-26 00:07N 46°12' W 001°45'2 3.4
2014-Oct-25 23:33N 46°14' W 001°47'3 3.5
2014-Oct-25 22:33N 46°17' W 001°49'3 2.8
2014-Oct-25 21:34N 46°19' W 001°51'4 3.6
2014-Oct-25 20:34N 46°23' W 001°53'3 3.5
2014-Oct-25 19:34N 46°26' W 001°55'3 2.8
2014-Oct-25 18:33N 46°26' W 001°59'3 2.9
2014-Oct-25 17:34N 46°26' W 002°03'4 3.8
2014-Oct-25 16:33N 46°28' W 001°58'2 2.2
2014-Oct-25 15:33N 46°26' W 002°00'2 2.4
2014-Oct-25 14:33N 46°27' W 002°04'3 3.2
2014-Oct-25 13:33N 46°28' W 001°59'2 1.5
2014-Oct-25 12:33N 46°26' W 001°60'3 3.2
2014-Oct-25 11:33N 46°26' W 002°05'4 3.9
2014-Oct-25 10:33N 46°28' W 001°59'1 1.3
2014-Oct-25 09:34N 46°26' W 001°59'3 3.5
2014-Oct-25 08:33N 46°26' W 002°04'4 4.0
2014-Oct-25 07:34N 46°28' W 001°59'2 1.7
2014-Oct-25 06:34N 46°26' W 002°00'3 2.7
2014-Oct-25 05:33N 46°25' W 002°04'3 3.2
2014-Oct-25 04:33N 46°28' W 002°01'2 2.4
2014-Oct-25 03:33N 46°27' W 001°57'4 3.8
2014-Oct-25 02:34N 46°25' W 002°02'2 2.4
2014-Oct-25 01:33N 46°23' W 002°02'3 3.1
2014-Oct-25 00:32N 46°20' W 001°59'3 3.0
2014-Oct-24 23:33N 46°21' W 001°55'3 3.4
2014-Oct-24 22:33N 46°21' W 001°50'2 1.9
2014-Oct-24 21:34N 46°21' W 001°48'3 3.4
2014-Oct-24 20:34N 46°24' W 001°51'3 3.4
2014-Oct-24 19:33N 46°26' W 001°55'3 3.3
2014-Oct-24 18:34N 46°27' W 001°59'1 1.2
2014-Oct-24 17:33N 46°27' W 002°01'3 2.6
2014-Oct-24 16:34N 46°27' W 001°57'4 3.8
2014-Oct-24 15:31N 46°26' W 002°03'3 3.1
2014-Oct-24 14:33N 46°27' W 001°59'6 5.5
2014-Oct-24 13:33N 46°28' W 001°51'3 2.9
2014-Oct-24 12:34N 46°29' W 001°47'8 7.6
2014-Oct-24 11:33N 46°27' W 001°58'2 2.3
2014-Oct-24 10:33N 46°27' W 002°01'2 2.0
2014-Oct-24 09:33N 46°27' W 001°58'3 3.3
2014-Oct-24 08:34N 46°26' W 002°03'3 2.7
2014-Oct-24 07:33N 46°28' W 001°60'3 2.6
2014-Oct-24 06:34N 46°26' W 001°56'4 4.2
2014-Oct-24 05:33N 46°24' W 001°52'8 8.3
2014-Oct-24 04:33N 46°20' W 001°41'10 2.0
2014-Oct-23 23:20N 46°10' W 001°35'7 8.9
2014-Oct-23 22:33N 46°14' W 001°44'3 3.2
2014-Oct-23 21:34N 46°17' W 001°46'3 3.5
2014-Oct-23 20:34N 46°19' W 001°50'3 3.4
2014-Oct-23 19:33N 46°20' W 001°54'3 3.4
2014-Oct-23 18:33N 46°20' W 001°59'3 3.4
2014-Oct-23 17:34N 46°23' W 002°02'4 3.6
2014-Oct-23 16:34N 46°27' W 002°00'1 0.7
2014-Oct-23 15:34N 46°26' W 001°60'3 3.4
2014-Oct-23 14:34N 46°24' W 002°03'3 3.1
2014-Oct-23 13:33N 46°21' W 002°00'5 1.6
2014-Oct-23 10:31N 46°16' W 002°01'7 2.4
2014-Oct-23 07:33N 46°13' W 001°51'4 4.2
2014-Oct-23 06:33N 46°18' W 001°50'2 2.0
2014-Oct-23 05:34N 46°18' W 001°47'3 2.9
2014-Oct-23 04:33N 46°15' W 001°47'3 3.4
2014-Oct-23 03:33N 46°17' W 001°50'4 3.7
2014-Oct-23 02:33N 46°21' W 001°52'2 2.2
2014-Oct-23 01:33N 46°21' W 001°49'4 3.6
2014-Oct-23 00:33N 46°18' W 001°47'3 3.3
2014-Oct-22 23:32N 46°15' W 001°46'3 3.4
2014-Oct-22 22:34N 46°17' W 001°49'1 0.9
2014-Oct-22 21:34N 46°18' W 001°50'4 3.7
2014-Oct-22 20:33N 46°14' W 001°47'7 3.6
2014-Oct-22 18:32N 46°08' W 001°42'5 0.7
2014-Oct-22 11:34N 46°12' W 001°46'4 4.2
2014-Oct-22 10:33N 46°16' W 001°49'2 2.3
2014-Oct-22 09:33N 46°18' W 001°47'4 1.9
2014-Oct-22 07:33N 46°14' W 001°47'5 4.5
2014-Oct-22 06:33N 46°18' W 001°50'5 5.0
2014-Oct-22 05:34N 46°23' W 001°51'7 7.1
2014-Oct-22 04:33N 46°30' W 001°48'0 0.0
2014-Oct-22 03:33N 46°30' W 001°48'0 0.0
2014-Oct-22 02:33N 46°30' W 001°48'0 0.0
2014-Oct-22 01:33N 46°30' W 001°48'0 0.0
2014-Oct-22 00:33N 46°30' W 001°48'0 0.0
2014-Oct-21 23:34N 46°30' W 001°48'0 0.0
2014-Oct-21 22:33N 46°30' W 001°48'0 0.0
2014-Oct-21 21:33N 46°30' W 001°48'0 0.0
2014-Oct-21 20:33N 46°30' W 001°48'0 0.0
2014-Oct-21 19:33N 46°30' W 001°48'0 0.0
2014-Oct-21 18:33N 46°30' W 001°48'0 0.0
2014-Oct-21 17:33N 46°30' W 001°48'0 0.0
2014-Oct-21 16:33N 46°30' W 001°48'0 0.0
2014-Oct-21 15:33N 46°30' W 001°48'0 0.1
2014-Oct-21 14:34N 46°30' W 001°47'0 0.1
2014-Oct-21 13:34N 46°30' W 001°47'0 0.0
2014-Oct-21 12:33N 46°30' W 001°47'0 0.0
2014-Oct-21 11:33N 46°30' W 001°47'0 0.0
2014-Oct-21 10:34N 46°30' W 001°47'0 0.0
2014-Oct-21 09:33N 46°30' W 001°47'0 0.0
2014-Oct-21 08:34N 46°30' W 001°47'0 0.0
2014-Oct-21 07:33N 46°30' W 001°47'0 0.0
2014-Oct-21 06:34N 46°30' W 001°47'0 0.0
2014-Oct-21 05:33N 46°30' W 001°47'0 0.0
2014-Oct-21 04:33N 46°30' W 001°47'0 0.0
2014-Oct-21 03:33N 46°30' W 001°47'0 0.0
2014-Oct-21 02:34N 46°30' W 001°47'0 0.0
2014-Oct-21 01:34N 46°30' W 001°47'0 0.0
2014-Oct-21 00:33N 46°30' W 001°47'0 0.0
2014-Oct-20 23:34N 46°30' W 001°47'0 0.0
2014-Oct-20 22:34N 46°30' W 001°47'0 0.0
2014-Oct-20 21:34N 46°30' W 001°47'0 0.0
2014-Oct-20 20:34N 46°30' W 001°47'0 0.0
2014-Oct-20 19:33N 46°30' W 001°47'0 0.0
2014-Oct-20 18:33N 46°30' W 001°47'0 0.0
2014-Oct-20 17:34N 46°30' W 001°47'0 0.0
2014-Oct-20 16:33N 46°30' W 001°47'0 0.0
2014-Oct-20 15:33N 46°30' W 001°47'0 0.0
2014-Oct-20 14:34N 46°30' W 001°47'0 0.0
2014-Oct-20 13:33N 46°30' W 001°47'0 0.0
2014-Oct-20 12:33N 46°30' W 001°47'0 0.0
2014-Oct-20 11:34N 46°30' W 001°47'0 0.0
2014-Oct-20 10:33N 46°30' W 001°47'  

Dump ship's entire track history